Wind_Speed
19 18 17 17 16 14 13 13 13 11 11 10 9 9 8 7 6 6 6 6 6 6 6 6 6 6 6 7 8 9 9 10 10 10 10 10 11 11 10 11 11 11 12 12 12 12 12 12 12
21 20 19 18 17 15 14 15 15 13 12 11 11 10 10 9 9 8 7 7 7 7 8 8 7 7 7 8 9 9 10 11 11 11 11 11 11 11 12 12 12 13 13 13 13 13 13 13 13
21 21 21 19 18 16 16 17 15 15 13 12 12 12 12 11 10 9 8 8 8 9 9 9 9 9 9 9 10 10 11 11 12 12 12 12 12 13 13 13 13 14 14 14 14 14 14 14 14
22 21 22 20 19 19 20 18 17 16 14 13 13 12 12 12 11 10 10 9 9 10 10 10 10 10 11 11 11 11 12 12 13 13 13 13 13 13 14 14 14 15 15 15 16 16 16 15 15
22 22 22 21 20 20 20 19 18 16 15 14 13 13 13 13 12 12 12 11 11 11 12 12 12 12 12 12 12 12 13 14 14 14 14 14 15 15 15 15 16 16 16 17 17 17 17 16 16
23 22 21 20 20 20 20 19 19 18 17 16 15 15 14 13 11 12 13 13 13 13 13 13 13 13 13 13 13 14 15 15 16 16 16 16 16 16 16 17 17 18 18 18 18 18 18 18 18
22 21 20 20 20 21 21 20 20 19 18 17 16 16 15 14 14 14 14 13 13 13 13 14 14 14 14 14 14 15 16 16 17 17 17 17 17 18 18 18 19 19 20 20 20 20 19 20 20
21 21 20 20 20 21 22 21 20 20 19 18 17 17 17 16 16 15 14 13 12 13 14 14 14 15 15 15 16 16 17 17 17 18 18 18 19 19 19 20 20 21 21 21 21 21 21 21 21
21 20 20 20 20 21 22 21 20 20 19 18 18 17 17 17 17 16 16 15 15 14 15 15 15 15 15 16 17 17 18 18 18 19 19 19 19 20 20 20 21 22 22 22 22 22 22 22 22
20 19 20 21 21 21 21 20 20 20 19 19 18 18 18 18 17 17 17 16 16 16 16 16 16 16 16 16 17 18 18 18 19 20 20 20 21 21 21 22 22 22 23 22 22 23 23 24 24
19 20 20 20 20 20 20 20 20 20 20 19 19 18 18 18 17 17 17 17 17 17 17 17 17 17 16 17 18 18 18 19 20 20 21 21 23 23 23 23 23 23 24 24 24 24 24 25 25
18 18 18 19 19 20 20 20 20 20 20 19 19 19 19 19 18 18 18 17 17 17 17 18 18 18 19 19 19 19 20 20 21 21 22 23 23 24 24 24 23 24 25 25 25 26 25 26 27
16 17 17 18 19 19 20 20 20 19 19 19 19 20 20 20 19 19 19 18 19 18 18 19 19 20 20 20 20 21 21 22 22 22 23 23 24 24 24 24 24 25 26 26 26 26 26 26 27
14 15 16 17 17 19 19 19 20 19 19 19 19 19 19 19 19 19 19 19 19 19 19 20 21 22 22 22 21 22 23 22 22 23 24 24 24 24 25 25 25 25 26 26 26 26 26 26 26
12 13 15 16 17 18 19 19 20 19 19 19 19 19 19 19 19 19 19 19 19 20 20 21 22 23 23 23 22 22 23 23 24 24 24 24 24 25 25 26 26 26 27 27 26 26 26 26 26
10 12 14 16 16 17 18 18 20 20 19 19 19 19 18 19 19 19 20 20 20 20 21 22 23 23 24 23 22 23 23 23 24 24 24 24 25 26 26 26 26 26 27 27 26 26 27 27 27
9 10 13 15 16 17 18 18 19 20 18 19 19 19 19 20 20 20 20 20 19 20 22 22 23 24 24 23 22 23 23 24 24 24 23 24 25 26 26 26 26 26 27 27 26 27 27 28 28
11 11 13 14 16 17 18 18 18 18 19 19 19 18 18 20 21 20 20 20 20 20 21 23 23 23 24 23 23 24 24 25 25 24 24 25 25 26 26 26 26 26 27 26 27 28 28 28 28
11 12 14 15 16 17 18 18 18 18 18 18 19 19 19 20 21 20 20 20 21 21 22 23 23 24 24 24 24 24 25 24 25 25 24 25 26 26 26 27 27 26 26 27 27 28 29 29 28
11 12 14 15 17 16 17 17 18 18 18 18 19 18 19 19 19 19 19 20 21 22 23 23 23 24 24 25 24 24 24 25 27 26 25 25 25 26 26 26 26 26 26 27 28 28 29 29 28
12 13 14 15 15 16 17 16 16 17 18 18 18 18 18 19 19 19 19 20 21 22 23 24 24 24 24 25 24 25 26 26 25 26 25 26 25 25 25 25 26 26 26 27 28 28 29 29 28
11 13 13 14 14 14 16 14 15 16 17 17 18 18 18 18 19 19 20 21 22 23 23 24 24 24 24 25 26 26 27 27 27 27 26 26 26 26 25 25 26 26 26 27 28 28 28 27 28
11 12 13 13 13 13 14 14 14 15 16 17 17 18 18 18 18 19 20 21 22 22 23 24 24 25 25 25 26 27 27 27 28 27 26 26 26 25 25 25 25 25 26 27 27 27 26 26 26
11 11 12 11 11 11 12 12 12 14 15 16 17 17 17 18 18 18 20 21 22 22 23 24 25 25 26 26 26 27 27 27 27 27 26 26 26 25 25 26 25 25 26 26 26 26 25 25 25
9 9 9 9 9 11 12 12 13 14 15 16 16 17 17 18 18 18 19 20 22 23 24 25 25 25 26 26 26 26 27 27 28 28 26 26 26 25 24 25 25 25 25 26 26 26 25 24 25
10 9 9 10 11 11 12 13 14 15 16 16 16 16 17 18 18 19 21 21 21 22 23 24 24 25 25 25 26 26 26 27 27 26 25 25 26 25 24 24 24 24 25 24 25 24 24 24 24
11 10 10 11 11 12 12 13 14 15 15 16 16 16 17 18 19 20 21 21 21 22 22 22 23 24 25 25 25 25 26 27 26 25 25 25 25 25 24 24 24 24 24 24 24 24 24 24 24
10 10 11 11 12 12 12 13 14 14 15 16 18 17 18 18 18 19 20 20 20 21 22 22 23 23 24 24 24 24 24 25 25 24 24 24 24 24 24 24 23 23 24 24 24 24 25 24 24
10 11 11 12 12 13 14 14 16 16 17 17 18 17 17 17 18 19 19 19 20 21 22 22 22 22 23 23 23 23 24 24 23 22 23 23 24 24 24 24 23 23 24 24 24 24 25 25 25
12 12 12 13 14 13 15 16 16 15 15 16 16 16 16 17 18 18 19 19 20 21 21 22 22 22 22 23 22 22 22 22 21 21 22 22 23 24 24 24 23 23 24 23 23 24 25 24 24
Wind_Direction
225 225 224 224 225 227 225 227 232 234 239 240 240 235 234 241 243 247 257 269 278 287 288 290 298 302 304 307 308 308 309 310 313 315 316 317 319 319 317 318 317 314 311 311 309 306 303 299 296
226 226 226 226 225 226 228 230 233 237 243 246 246 248 248 250 252 252 262 275 280 285 286 289 293 296 299 300 302 305 307 308 309 309 311 312 313 314 313 312 312 309 306 305 304 302 300 298 293
227 227 227 226 225 222 229 233 237 240 244 248 251 253 255 253 252 254 263 276 282 284 286 287 291 293 294 296 297 301 304 305 307 308 307 308 308 309 309 307 306 305 304 302 300 298 297 294 291
227 226 228 228 227 226 229 234 237 240 243 248 252 256 258 256 254 260 265 275 279 281 282 285 290 292 291 290 293 297 301 303 305 305 304 304 306 307 305 304 303 302 302 301 298 296 295 292 289
226 227 228 230 230 231 233 236 238 240 242 248 254 257 260 261 262 266 269 273 275 279 280 284 285 287 288 289 291 295 299 300 301 302 301 301 301 302 303 302 301 300 301 300 297 293 293 292 290
226 227 229 230 231 231 232 235 238 241 243 249 255 260 265 269 266 272 274 273 278 279 281 285 285 286 288 289 291 293 297 299 300 300 298 297 297 298 299 299 299 301 302 301 299 295 293 291 290
225 227 228 229 230 231 233 236 240 242 243 248 253 257 264 270 271 275 279 282 284 279 280 289 287 287 287 289 290 293 296 297 298 298 296 294 294 295 296 296 297 298 298 298 297 296 294 291 289
225 227 228 229 231 233 234 237 240 243 245 249 253 255 261 267 272 276 280 282 285 284 285 288 288 284 286 290 293 294 295 295 296 296 295 295 295 295 293 294 295 297 297 297 295 294 293 291 289
225 227 228 229 231 233 236 238 241 245 248 251 254 258 263 267 272 273 278 282 280 280 283 285 288 285 287 288 290 292 294 293 294 295 294 293 295 294 293 292 294 297 297 297 296 294 292 291 289
225 227 229 230 232 236 238 241 243 246 251 254 257 261 264 267 272 272 276 282 281 280 281 283 287 287 286 287 288 290 292 292 293 294 294 292 293 294 294 293 294 295 295 296 295 293 293 291 289
226 228 231 232 234 238 240 241 243 246 249 252 257 261 262 266 268 268 272 275 277 280 281 280 284 283 282 285 287 289 291 292 294 294 294 294 294 294 293 292 291 292 293 294 293 292 291 291 290
228 230 233 234 235 238 240 241 243 246 250 254 256 260 263 267 267 268 270 272 273 276 278 276 277 278 281 283 285 286 290 291 291 291 292 293 293 293 291 290 290 291 293 293 293 292 291 291 291
230 232 235 237 238 240 242 243 246 249 253 255 256 259 264 268 269 269 270 272 272 275 275 273 276 278 280 283 284 284 286 289 290 290 291 291 292 292 292 291 291 292 293 294 294 293 292 292 291
233 236 239 240 241 243 245 248 250 253 256 259 259 261 266 267 268 269 270 271 272 274 273 274 276 279 281 284 285 286 286 288 290 290 290 291 292 292 292 291 291 292 294 295 295 294 293 292 292
240 241 241 243 246 246 247 250 254 257 259 259 259 264 266 265 267 268 271 274 272 274 274 275 277 281 283 284 283 284 285 287 290 291 291 292 292 291 291 290 290 292 294 294 294 294 294 292 292
243 246 247 248 248 249 249 252 254 256 259 260 261 264 265 266 267 268 271 273 274 275 274 275 276 280 282 281 282 285 287 288 289 290 290 292 293 293 292 291 292 293 294 294 293 294 293 293 291
249 249 249 251 251 253 254 255 256 256 258 260 262 263 265 267 268 269 269 272 273 273 275 278 279 281 282 280 283 286 289 291 290 291 291 293 293 293 293 293 293 293 292 293 293 293 293 293 291
246 247 250 253 253 253 254 254 258 258 259 262 263 264 267 269 270 271 271 272 275 277 278 277 278 279 283 282 284 288 291 291 292 292 290 293 294 293 292 294 294 292 292 292 293 293 293 293 292
247 250 255 257 257 255 257 257 257 257 257 260 263 264 266 269 271 272 270 272 274 276 277 277 277 277 280 281 283 288 290 290 289 290 290 292 294 293 292 293 293 292 292 294 295 296 295 293 292
255 254 258 262 261 261 261 261 259 256 255 259 263 266 266 268 272 274 271 273 275 277 279 278 277 278 280 280 282 285 287 285 288 290 290 292 295 293 293 294 294 293 293 296 298 298 297 295 292
260 256 259 262 265 266 267 268 265 259 257 260 264 266 268 269 269 270 272 274 277 279 279 278 278 278 280 281 280 283 284 287 288 288 291 292 294 292 290 294 295 295 294 296 299 299 300 297 294
259 261 266 266 266 265 267 266 267 262 260 263 266 268 268 270 271 270 271 275 278 280 279 279 279 279 282 283 282 283 284 286 286 287 289 291 292 291 291 296 297 296 296 298 300 301 302 297 294
262 265 270 271 269 271 273 273 270 264 263 265 266 266 267 269 271 270 271 274 277 278 278 279 278 280 282 283 285 284 284 284 285 286 287 290 291 291 293 297 298 298 298 299 301 302 302 299 296
277 279 278 279 279 279 275 271 270 268 266 267 270 269 270 271 272 272 274 275 277 278 279 279 279 279 280 282 284 285 286 284 286 288 288 290 292 292 294 297 299 300 299 299 300 303 302 301 300
275 282 290 287 279 277 275 272 269 269 269 272 273 273 274 274 275 275 277 277 276 279 280 278 277 277 279 282 282 282 283 286 288 289 289 291 293 292 294 297 299 300 298 298 300 302 302 302 302
274 275 278 279 278 278 279 278 275 273 274 274 273 275 277 277 277 278 278 278 278 280 282 279 276 277 279 281 282 282 283 285 288 288 289 291 293 293 295 298 300 300 300 299 300 302 303 304 304
275 274 273 282 289 291 288 286 284 280 280 281 280 279 280 279 280 280 280 280 280 280 281 281 279 279 280 281 281 283 283 285 288 289 290 292 293 294 297 299 299 300 300 301 302 304 304 305 305
272 276 282 290 293 293 295 292 284 285 283 281 281 281 282 284 284 284 284 284 282 281 282 284 283 281 281 281 282 284 285 286 288 288 290 292 294 294 296 298 299 300 300 301 302 303 306 306 305
279 283 285 285 286 292 294 291 287 287 285 283 281 281 284 288 287 286 285 285 285 286 285 285 283 283 282 283 283 284 287 289 288 290 291 293 294 295 296 297 299 299 299 300 302 304 307 307 306
277 279 282 285 287 288 294 297 294 291 289 287 285 284 286 289 290 289 288 289 290 289 287 285 285 282 282 283 283 284 286 288 288 291 293 295 297 298 298 298 298 298 299 301 304 305 306 306 306
Height
5888 5890 5892 5894 5896 5898 5899 5900 5900 5900 5901 5901 5902 5902 5903 5904 5905 5906 5904 5902 5901 5901 5900 5900 5899 5899 5898 5898 5897 5896 5895 5894 5893 5892 5891 5890 5888 5887 5886 5886 5885 5884 5883 5882 5881 5880 5879 5878 5878
5885 5887 5889 5891 5893 5896 5898 5897 5897 5898 5899 5899 5900 5900 5901 5901 5902 5902 5901 5900 5900 5899 5898 5898 5897 5897 5896 5896 5895 5894 5893 5892 5891 5890 5889 5888 5886 5885 5884 5883 5882 5881 5880 5879 5878 5877 5876 5876 5875
5881 5883 5886 5888 5890 5894 5895 5894 5895 5896 5896 5897 5898 5898 5899 5899 5899 5899 5899 5899 5898 5897 5896 5896 5895 5895 5894 5893 5893 5892 5891 5890 5889 5888 5887 5885 5884 5883 5882 5881 5880 5879 5878 5876 5875 5875 5874 5873 5872
5877 5880 5883 5886 5887 5889 5890 5891 5892 5893 5894 5895 5896 5896 5896 5897 5897 5897 5896 5896 5896 5895 5894 5893 5893 5893 5892 5891 5890 5889 5888 5887 5886 5885 5884 5883 5882 5881 5879 5878 5877 5876 5875 5874 5873 5871 5870 5869 5869
5873 5876 5879 5882 5884 5886 5887 5888 5889 5890 5891 5892 5893 5894 5894 5894 5894 5894 5894 5894 5893 5892 5892 5891 5891 5890 5890 5888 5887 5887 5886 5885 5884 5883 5881 5880 5879 5878 5877 5876 5874 5873 5872 5870 5869 5868 5867 5866 5865
5870 5873 5876 5879 5880 5882 5884 5885 5886 5887 5888 5889 5890 5891 5892 5892 5892 5892 5892 5891 5891 5890 5889 5888 5888 5887 5887 5886 5885 5884 5883 5882 5881 5880 5878 5877 5876 5875 5873 5872 5871 5870 5868 5867 5866 5865 5864 5863 5862
5867 5869 5872 5875 5877 5879 5880 5882 5883 5884 5885 5887 5887 5889 5889 5889 5889 5889 5889 5889 5888 5887 5886 5886 5885 5884 5884 5883 5882 5881 5880 5879 5878 5876 5875 5874 5873 5871 5870 5869 5868 5866 5865 5863 5862 5861 5860 5859 5858
5862 5866 5868 5871 5873 5875 5876 5878 5880 5881 5882 5884 5885 5886 5886 5887 5886 5886 5886 5885 5885 5884 5884 5883 5882 5881 5880 5880 5879 5878 5877 5876 5874 5873 5872 5870 5869 5867 5866 5865 5864 5862 5861 5859 5858 5857 5855 5854 5853
5859 5863 5865 5868 5870 5871 5873 5875 5877 5878 5880 5881 5881 5882 5883 5883 5883 5883 5883 5882 5882 5881 5881 5881 5880 5879 5878 5877 5876 5875 5874 5872 5871 5870 5868 5867 5865 5864 5862 5861 5860 5858 5857 5855 5854 5852 5851 5849 5848
5856 5859 5862 5863 5866 5867 5869 5871 5873 5875 5876 5878 5878 5879 5879 5880 5880 5880 5880 5879 5879 5878 5878 5878 5877 5876 5875 5874 5873 5871 5870 5869 5868 5866 5865 5863 5862 5860 5858 5857 5856 5854 5852 5851 5849 5848 5846 5844 5843
5852 5855 5857 5860 5862 5864 5866 5868 5870 5871 5873 5874 5875 5876 5876 5876 5877 5877 5877 5876 5876 5875 5875 5874 5873 5873 5872 5871 5869 5868 5867 5865 5864 5862 5861 5859 5858 5856 5854 5853 5851 5849 5848 5846 5844 5842 5840 5839 5837
5849 5852 5854 5856 5859 5861 5862 5864 5866 5867 5869 5870 5871 5872 5872 5873 5873 5873 5873 5873 5872 5871 5871 5870 5870 5869 5868 5867 5866 5865 5863 5862 5860 5859 5857 5855 5853 5852 5850 5848 5846 5845 5843 5841 5838 5837 5835 5833 5831
5847 5849 5850 5853 5855 5857 5859 5860 5862 5864 5865 5866 5867 5868 5869 5869 5869 5869 5869 5869 5868 5868 5867 5867 5866 5865 5864 5863 5862 5861 5859 5858 5856 5854 5852 5851 5849 5847 5845 5843 5841 5839 5837 5835 5833 5831 5829 5827 5825
5844 5846 5848 5850 5852 5853 5855 5857 5859 5860 5861 5862 5863 5864 5864 5865 5865 5865 5865 5865 5864 5864 5863 5863 5862 5862 5861 5859 5858 5857 5855 5853 5852 5850 5848 5846 5844 5842 5840 5839 5837 5834 5832 5830 5827 5825 5823 5820 5818
5842 5844 5846 5847 5848 5850 5852 5854 5855 5856 5857 5858 5859 5860 5860 5860 5861 5861 5861 5861 5861 5860 5860 5859 5858 5858 5856 5855 5854 5852 5850 5849 5847 5845 5843 5841 5839 5837 5835 5833 5831 5829 5826 5824 5821 5819 5817 5814 5812
5841 5843 5844 5845 5846 5847 5851 5851 5851 5852 5853 5854 5855 5855 5856 5856 5856 5856 5856 5856 5856 5856 5855 5855 5854 5853 5852 5851 5850 5848 5846 5844 5842 5840 5838 5836 5834 5832 5830 5828 5825 5823 5820 5818 5815 5813 5811 5808 5806
5840 5842 5842 5843 5843 5844 5846 5847 5848 5848 5849 5850 5851 5851 5852 5852 5852 5851 5852 5852 5852 5851 5851 5850 5849 5848 5847 5846 5845 5843 5841 5839 5837 5835 5833 5831 5829 5827 5825 5822 5820 5817 5814 5812 5809 5807 5804 5802 5799
5839 5840 5840 5841 5841 5842 5843 5844 5844 5845 5845 5846 5847 5847 5848 5848 5848 5847 5847 5847 5847 5847 5846 5846 5844 5843 5842 5841 5839 5838 5836 5834 5831 5829 5828 5826 5824 5821 5819 5817 5814 5811 5808 5806 5803 5801 5798 5795 5792
5836 5837 5837 5838 5838 5839 5839 5840 5841 5841 5841 5842 5843 5843 5843 5843 5843 5843 5843 5843 5842 5842 5841 5840 5839 5838 5837 5836 5834 5833 5831 5829 5827 5824 5822 5820 5818 5815 5813 5811 5808 5805 5803 5800 5797 5794 5791 5788 5785
5833 5834 5834 5834 5834 5835 5836 5837 5837 5837 5838 5838 5838 5838 5839 5839 5839 5838 5838 5838 5838 5837 5836 5835 5834 5833 5831 5830 5829 5827 5825 5823 5822 5819 5817 5815 5812 5810 5807 5805 5802 5799 5797 5794 5791 5788 5785 5781 5778
5831 5832 5832 5832 5832 5832 5833 5834 5834 5833 5833 5834 5834 5834 5834 5834 5834 5834 5834 5833 5833 5832 5831 5830 5828 5827 5826 5825 5823 5822 5820 5818 5815 5814 5812 5809 5807 5804 5802 5799 5796 5793 5791 5788 5785 5781 5778 5774 5771
5828 5828 5828 5828 5829 5830 5831 5831 5831 5830 5830 5830 5830 5830 5830 5830 5829 5829 5828 5828 5827 5826 5825 5824 5823 5822 5820 5819 5818 5816 5814 5812 5810 5808 5806 5803 5800 5798 5796 5793 5790 5787 5784 5781 5778 5775 5770 5767 5764
5825 5825 5825 5825 5826 5827 5827 5828 5829 5826 5826 5826 5825 5825 5825 5825 5824 5824 5823 5822 5821 5820 5819 5818 5817 5816 5815 5814 5812 5810 5808 5806 5804 5801 5799 5797 5794 5792 5790 5787 5784 5781 5778 5775 5772 5768 5764 5760 5757
5822 5822 5822 5822 5823 5824 5824 5824 5825 5823 5822 5822 5821 5821 5820 5820 5819 5819 5818 5817 5816 5815 5813 5812 5811 5810 5809 5807 5806 5804 5802 5800 5798 5795 5792 5790 5788 5786 5783 5781 5778 5775 5772 5769 5766 5762 5758 5755 5751
5820 5821 5821 5822 5822 5823 5821 5820 5821 5819 5818 5817 5817 5816 5816 5815 5814 5813 5812 5811 5810 5808 5807 5805 5804 5803 5802 5801 5799 5798 5796 5794 5792 5789 5786 5784 5782 5780 5777 5775 5772 5769 5766 5763 5760 5756 5752 5749 5745
5817 5818 5819 5820 5820 5819 5817 5816 5816 5814 5813 5812 5812 5811 5811 5810 5809 5808 5807 5805 5804 5803 5800 5799 5798 5797 5796 5794 5793 5791 5790 5788 5786 5784 5782 5779 5777 5774 5771 5769 5766 5763 5760 5757 5753 5750 5746 5743 5739
5814 5815 5815 5814 5814 5814 5814 5813 5811 5809 5808 5807 5806 5806 5805 5804 5803 5802 5801 5799 5798 5797 5795 5794 5792 5791 5790 5788 5786 5785 5784 5782 5780 5778 5776 5774 5771 5769 5766 5763 5760 5757 5754 5751 5747 5744 5740 5737 5733
5811 5811 5811 5811 5810 5811 5811 5809 5808 5805 5804 5802 5801 5800 5800 5799 5797 5796 5795 5793 5792 5791 5790 5788 5786 5785 5783 5782 5780 5779 5778 5776 5774 5772 5771 5768 5766 5763 5760 5757 5754 5751 5748 5745 5742 5738 5734 5730 5727
5807 5807 5807 5807 5807 5806 5806 5807 5802 5800 5799 5797 5796 5795 5794 5793 5792 5790 5789 5788 5786 5785 5784 5782 5780 5779 5777 5776 5775 5773 5772 5770 5768 5767 5765 5763 5760 5757 5754 5751 5748 5746 5743 5739 5736 5732 5728 5724 5720
5803 5803 5803 5804 5803 5802 5801 5803 5797 5795 5794 5792 5791 5790 5789 5788 5787 5785 5783 5782 5780 5779 5777 5776 5774 5772 5771 5770 5769 5768 5766 5764 5763 5761 5759 5757 5754 5752 5748 5745 5743 5740 5737 5733 5730 5726 5722 5718 5715